Location: Chantarel
(45.1638°N, 1.7873°E)
Time: 16:42:41
(UTC+00:00)

Cosmos 1703 Rocket - Pass Details

Date: 03 March 2021
Orbit: 604 x 634 km, 82.5° (Epoch: 15 April)

Event Time Altitude Azimuth Distance (km) Brightness Sun altitude
Rises 18:47:53 0° 357° (N) 2,911 7.1 -12.2°
Reaches altitude 10° 18:50:14 10° 4° (N) 1,995 6.2 -12.6°
Maximum altitude 18:54:26 42° 76° (ENE) 878 3.9 -13.4°
Drops below altitude 10° 18:58:34 10° 148° (SSE) 1,962 5.8 -14.1°
Enters shadow 18:59:30 - 152° (SSE) 2,324 6.2 -14.3°
